Previsão horária em Abbakumovo

Hoje, 18 Abril, Domingo

Tempo Temperatura Precipitação Vento Pressão Humidade
00:00 +6°C° 0 mm 4 m/s 747 mmHg 66%
01:00 +5°C° 0 mm 4 m/s 747 mmHg 68%
02:00 +4°C° 0 mm 4 m/s 747 mmHg 70%
03:00 +4°C° 0 mm 4 m/s 747 mmHg 73%
04:00 +3°C° 0 mm 4 m/s 747 mmHg 75%
05:00 +3°C° 0 mm 4 m/s 747 mmHg 78%
06:00 +4°C° 0 mm 4 m/s 747 mmHg 73%
07:00 +6°C° 0 mm 5 m/s 747 mmHg 68%
08:00 +7°C° 0 mm 5 m/s 747 mmHg 63%
09:00 +8°C° 0 mm 5 m/s 747 mmHg 57%
10:00 +9°C° 0 mm 5 m/s 747 mmHg 52%
11:00 +12°C° 0 mm 5 m/s 747 mmHg 46%
12:00 +12°C° 0 mm 5 m/s 747 mmHg 44%
13:00 +13°C° 0 mm 5 m/s 747 mmHg 42%
14:00 +13°C° 0 mm 5 m/s 747 mmHg 40%
15:00 +13°C° 0 mm 5 m/s 747 mmHg 42%
16:00 +13°C° 0 mm 4 m/s 747 mmHg 44%
17:00 +12°C° 0 mm 4 m/s 747 mmHg 46%
18:00 +11°C° 0 mm 4 m/s 747 mmHg 52%
19:00 +8°C° 0 mm 4 m/s 747 mmHg 57%
20:00 +7°C° 0 mm 4 m/s 748 mmHg 63%
21:00 +6°C° 0 mm 4 m/s 748 mmHg 66%
22:00 +5°C° 0 mm 4 m/s 748 mmHg 70%
23:00 +5°C° 0 mm 3 m/s 748 mmHg 74%

Amanhã, 19 Abril, Segunda-feira

Tempo Temperatura Precipitação Vento Pressão Humidade
00:00 +4°C° 0 mm 3 m/s 748 mmHg 77%
01:00 +4°C° 0 mm 3 m/s 749 mmHg 81%
02:00 +3°C° 0 mm 3 m/s 749 mmHg 85%
03:00 +3°C° 0 mm 3 m/s 749 mmHg 88%
04:00 +3°C° 0 mm 3 m/s 749 mmHg 91%
05:00 +2°C° 0 mm 3 m/s 749 mmHg 94%
06:00 +3°C° 0 mm 3 m/s 749 mmHg 89%
07:00 +4°C° 0 mm 3 m/s 749 mmHg 84%
08:00 +5°C° 0 mm 4 m/s 749 mmHg 80%
09:00 +5°C° 0 mm 4 m/s 749 mmHg 76%
10:00 +6°C° 0 mm 4 m/s 749 mmHg 72%
11:00 +7°C° 0 mm 4 m/s 749 mmHg 68%
12:00 +7°C° 0 mm 4 m/s 749 mmHg 66%
13:00 +8°C° 0 mm 3 m/s 749 mmHg 64%
14:00 +8°C° 0 mm 3 m/s 749 mmHg 62%
15:00 +8°C° 0 mm 3 m/s 749 mmHg 62%
16:00 +8°C° 0 mm 3 m/s 749 mmHg 62%
17:00 +7°C° 0 mm 3 m/s 748 mmHg 63%
18:00 +7°C° 0 mm 3 m/s 748 mmHg 64%
19:00 +5°C° 0 mm 3 m/s 748 mmHg 65%
20:00 +4°C° 0 mm 3 m/s 748 mmHg 67%
21:00 +4°C° 0 mm 3 m/s 748 mmHg 70%
22:00 +3°C° 0 mm 3 m/s 748 mmHg 74%
23:00 +2°C° 0 mm 3 m/s 748 mmHg 77%

Depois de amanhã, 20 Abril, Terça-feira

Tempo Temperatura Precipitação Vento Pressão Humidade
00:00 +3°C° 0 mm 2 m/s 748 mmHg 81%
01:00 +2°C° 0 mm 2 m/s 747 mmHg 84%
02:00 +2°C° 0 mm 2 m/s 747 mmHg 88%
03:00 +2°C° 0 mm 2 m/s 747 mmHg 85%
04:00 0°C° 0 mm 3 m/s 747 mmHg 82%
05:00 0°C° 0 mm 3 m/s 746 mmHg 79%
06:00 +1°C° 0 mm 3 m/s 746 mmHg 75%
07:00 +1°C° 0 mm 4 m/s 746 mmHg 71%
08:00 +1°C° 0 mm 4 m/s 746 mmHg 67%
09:00 +1°C° 0 mm 4 m/s 746 mmHg 74%
10:00 +1°C° 0 mm 4 m/s 746 mmHg 81%
11:00 +1°C° 0 mm 4 m/s 745 mmHg 88%
12:00 +1°C° 0.1 mm 4 m/s 745 mmHg 91%
13:00 +1°C° 0.1 mm 3 m/s 745 mmHg 93%
14:00 +1°C° 0.1 mm 3 m/s 744 mmHg 95%
15:00 +1°C° 0 mm 3 m/s 744 mmHg 96%
16:00 +1°C° 0 mm 3 m/s 744 mmHg 96%
17:00 +2°C° 0 mm 3 m/s 743 mmHg 96%
18:00 +2°C° 0.2 mm 3 m/s 743 mmHg 94%
19:00 +3°C° 0.2 mm 3 m/s 742 mmHg 92%
20:00 +3°C° 0.2 mm 3 m/s 742 mmHg 90%
21:00 +3°C° 0.2 mm 4 m/s 741 mmHg 92%
22:00 +3°C° 0.2 mm 4 m/s 740 mmHg 94%
23:00 +3°C° 0.2 mm 4 m/s 739 mmHg 96%

21 Abril, Quarta-feira

Tempo Temperatura Precipitação Vento Pressão Humidade
00:00 +1°C° 1.3 mm 4 m/s 738 mmHg 96%
01:00 +1°C° 1.3 mm 4 m/s 737 mmHg 96%
02:00 +1°C° 1.3 mm 5 m/s 736 mmHg 97%
03:00 0°C° 1.2 mm 5 m/s 735 mmHg 97%
04:00 0°C° 1.2 mm 5 m/s 734 mmHg 97%
05:00 -1°C° 1.2 mm 5 m/s 733 mmHg 97%
06:00 -1°C° 1.4 mm 4 m/s 733 mmHg 97%
07:00 -1°C° 1.4 mm 4 m/s 732 mmHg 97%
08:00 -1°C° 1.4 mm 4 m/s 731 mmHg 97%
09:00 -1°C° 1.3 mm 4 m/s 731 mmHg 97%
10:00 0°C° 1.3 mm 3 m/s 731 mmHg 97%
11:00 0°C° 1.3 mm 3 m/s 730 mmHg 97%
12:00 +1°C° 0.5 mm 3 m/s 730 mmHg 98%
13:00 +1°C° 0.5 mm 3 m/s 730 mmHg 98%
14:00 +1°C° 0.5 mm 3 m/s 730 mmHg 98%
15:00 +1°C° 1 mm 3 m/s 730 mmHg 98%
16:00 +1°C° 1 mm 3 m/s 730 mmHg 98%
17:00 0°C° 1 mm 3 m/s 730 mmHg 98%
18:00 0°C° 0.3 mm 3 m/s 731 mmHg 98%
19:00 0°C° 0.3 mm 3 m/s 732 mmHg 98%
20:00 -1°C° 0.3 mm 4 m/s 732 mmHg 98%
21:00 0°C° 0.2 mm 3 m/s 733 mmHg 98%
22:00 0°C° 0.2 mm 3 m/s 734 mmHg 98%
23:00 0°C° 0.2 mm 3 m/s 735 mmHg 98%

22 Abril, Quinta-feira

Tempo Temperatura Precipitação Vento Pressão Humidade
00:00 0°C° 0.3 mm 3 m/s 735 mmHg 98%
01:00 0°C° 0.3 mm 3 m/s 736 mmHg 98%
02:00 0°C° 0.3 mm 3 m/s 737 mmHg 98%
03:00 +1°C° 0.1 mm 3 m/s 737 mmHg 97%
04:00 +1°C° 0.1 mm 3 m/s 738 mmHg 96%
05:00 +1°C° 0.1 mm 3 m/s 739 mmHg 95%
06:00 +2°C° 0 mm 3 m/s 739 mmHg 94%
07:00 +4°C° 0 mm 2 m/s 740 mmHg 92%
08:00 +5°C° 0 mm 2 m/s 740 mmHg 91%
09:00 +6°C° 0 mm 2 m/s 741 mmHg 85%
10:00 +7°C° 0 mm 2 m/s 742 mmHg 80%
11:00 +9°C° 0 mm 3 m/s 742 mmHg 74%
12:00 +9°C° 0.1 mm 2 m/s 742 mmHg 73%
13:00 +10°C° 0.1 mm 2 m/s 743 mmHg 71%
14:00 +10°C° 0.1 mm 2 m/s 743 mmHg 70%
15:00 +10°C° 0.2 mm 2 m/s 743 mmHg 74%
16:00 +10°C° 0.2 mm 2 m/s 744 mmHg 78%
17:00 +11°C° 0.2 mm 1 m/s 744 mmHg 82%
18:00 +9°C° 0 mm 1 m/s 744 mmHg 86%
19:00 +7°C° 0 mm 1 m/s 745 mmHg 91%
20:00 +5°C° 0 mm 1 m/s 745 mmHg 95%
21:00 +5°C° 0 mm 1 m/s 745 mmHg 95%
22:00 +4°C° 0 mm 1 m/s 746 mmHg 96%
23:00 +4°C° 0 mm 1 m/s 746 mmHg 96%

23 Abril, Sexta-feira

Tempo Temperatura Precipitação Vento Pressão Humidade
00:00 +4°C° 0 mm 1 m/s 746 mmHg 96%
01:00 +3°C° 0 mm 1 m/s 746 mmHg 97%
02:00 +3°C° 0 mm 1 m/s 746 mmHg 97%
03:00 +3°C° 0 mm 1 m/s 746 mmHg 97%
04:00 +3°C° 0 mm 1 m/s 747 mmHg 97%
05:00 +3°C° 0 mm 1 m/s 747 mmHg 97%
06:00 +4°C° 0 mm 2 m/s 747 mmHg 92%
07:00 +7°C° 0 mm 2 m/s 747 mmHg 88%
08:00 +9°C° 0 mm 2 m/s 747 mmHg 83%
09:00 +10°C° 0.1 mm 3 m/s 748 mmHg 79%
10:00 +12°C° 0.1 mm 3 m/s 748 mmHg 74%
11:00 +13°C° 0.1 mm 3 m/s 748 mmHg 69%
12:00 +14°C° 0.2 mm 3 m/s 748 mmHg 66%
13:00 +15°C° 0.2 mm 2 m/s 748 mmHg 62%
14:00 +15°C° 0.2 mm 2 m/s 748 mmHg 59%
15:00 +15°C° 0.1 mm 2 m/s 748 mmHg 63%
16:00 +15°C° 0.1 mm 2 m/s 748 mmHg 67%
17:00 +15°C° 0.1 mm 1 m/s 748 mmHg 71%
18:00 +13°C° 0 mm 1 m/s 749 mmHg 76%
19:00 +11°C° 0 mm 1 m/s 749 mmHg 82%
20:00 +9°C° 0 mm 1 m/s 749 mmHg 87%
21:00 +9°C° 0 mm 1 m/s 749 mmHg 88%
22:00 +9°C° 0 mm 1 m/s 749 mmHg 89%
23:00 +8°C° 0 mm 1 m/s 750 mmHg 90%
Mostrar mais

Necessitamos do seu Consentimento

A Meteoprog e os seus Fornecedores de Serviços podem armazenar e aceder a dados pessoais como cookies, identificadores do dispositivo ou outras tecnologias semelhantes existentes no seu dispositivo e processar estes dados para personalizar conteúdos e anúncios, assim como funcionalidades nas redes sociais e análise de tráfego.

  • Armazenar e/ou aceder a informações no seu dispositivo

    Os cookies, identificadores do dispositivo ou outras informações podem ser armazenados ou acedidos no seu dispositivo, para os fins acima indicados.

  • Anúncios e conteúdos personalizados, medição de anúncios e conteúdos, dados sobre o público-alvo e desenvolvimento de produtos

    Os anúncios e os conteúdos podem ser personalizados com base num perfil. Podem ser adicionados dados adicionais para uma maior personalização dos anúncios e dos conteúdos. A eficácia dos anúncios e dos conteúdos pode ser medida. Podem ser obtidas informações sobre o público que visualizou os anúncios e os conteúdos. Estes dados podem ser usados para desenvolver ou melhorar sistemas, softwares ou a experiência do utilizador.

Ao clicar em "Eu concordo”, permitirá o uso de cookies, identificadores do dispositivo e web beacons mencionados ou outras tecnologias semelhantes. As configurações do navegador do seu dispositivo podem ser alteradas.

Para certos fins, podem ser invocados interesses legítimos ao invés de consentimento. Pode ler mais informação sobre este assunto na nossa Política de Privacidade e Cookies.